This is the latest recevied weather packets stored in our database for station/object DL1NER. If no packets are shown the sender has not sent any weather packets the latest 1 day(s).
| Time | Temp. | Humidity | Pressure | Rain* | Wind** | Luminosity | Snow |
|---|---|---|---|---|---|---|---|
| 1777981211 | 24.44° C | 44% | 1005.9 hPa | 0 mm | 1.79 m/s, 327° | 0 W/m² | - |
| 1777980612 | 23.33° C | 45% | 1006 hPa | 0 mm | 1.34 m/s, 242° | 0 W/m² | - |
| 1777980012 | 23.33° C | 45% | 1006 hPa | 0 mm | 0.89 m/s, 288° | 0 W/m² | - |
| 1777979412 | 23.33° C | 45% | 1006.1 hPa | 0 mm | 0.89 m/s, 92° | 0 W/m² | - |
| 1777978812 | 23.33° C | 46% | 1006.2 hPa | 0 mm | 0.45 m/s, 55° | 0 W/m² | - |
| 1777978212 | 22.78° C | 47% | 1006.5 hPa | 0 mm | 1.34 m/s, 327° | 0 W/m² | - |
| 1777977613 | 22.22° C | 49% | 1006.6 hPa | 0 mm | 0.89 m/s, 13° | 0 W/m² | - |
| 1777977012 | 22.22° C | 47% | 1006.7 hPa | 0 mm | 0.89 m/s, 273° | 0 W/m² | - |
| 1777976411 | 22.78° C | 49% | 1006.7 hPa | 0 mm | 1.34 m/s, 224° | 0 W/m² | - |
| 1777975811 | 22.78° C | 49% | 1006.7 hPa | 0 mm | 0.89 m/s, 279° | 0 W/m² | - |
| 1777975212 | 22.78° C | 50% | 1006.8 hPa | 0 mm | 0.89 m/s, 344° | 0 W/m² | - |
| 1777974611 | 21.67° C | 50% | 1006.9 hPa | 0 mm | 0.89 m/s, 247° | 0 W/m² | - |
| 1777974012 | 21.67° C | 50% | 1006.9 hPa | 0 mm | 0.89 m/s, 247° | 0 W/m² | - |
| 1777973412 | 22.22° C | 50% | 1007.2 hPa | 0 mm | 1.34 m/s, 279° | 0 W/m² | - |
| 1777972811 | 21.67° C | 49% | 1007.2 hPa | 0 mm | 0.89 m/s, 34° | 0 W/m² | - |
| 1777972211 | 21.67° C | 51% | 1007.3 hPa | 0 mm | 1.34 m/s, 344° | 0 W/m² | - |
| 1777971612 | 21.67° C | 51% | 1007.5 hPa | 0 mm | 1.34 m/s, 350° | 0 W/m² | - |
| 1777971012 | 21.11° C | 50% | 1007.6 hPa | 0 mm | 0.89 m/s, 360° | 0 W/m² | - |
| 1777970411 | 21.11° C | 46% | 1007.7 hPa | 0 mm | 1.34 m/s, 16° | 0 W/m² | - |
| 1777969812 | 21.11° C | 52% | 1007.7 hPa | 0 mm | 1.34 m/s, 24° | 0 W/m² | - |
| 1777969213 | 20.56° C | 52% | 1007.8 hPa | 0 mm | 0.89 m/s, 5° | 0 W/m² | - |
| 1777968610 | 19.44° C | 55% | 1007.9 hPa | 0 mm | 0.89 m/s, 336° | 0 W/m² | - |
| 1777968010 | 19.44° C | 55% | 1007.9 hPa | 0 mm | 0.89 m/s, 336° | 0 W/m² | - |
| 1777967411 | 19.44° C | 55% | 1008.1 hPa | 0 mm | 0.45 m/s, 325° | 0 W/m² | - |
| 1777966811 | 19.44° C | 54% | 1008.2 hPa | 0 mm | 0 m/s | 0 W/m² | - |
* Rain latest hour (hover to see other rain measurements)
** Current wind speed in m/s (hover to see current wind gust speed)